This is the latest recevied weather packets stored in our database for station/object PE1RXF-13. If no packets are shown the sender has not sent any weather packets the latest 10 day(s).
| Time | Temp. | Humidity | Pressure | Rain* | Wind** | Luminosity | Snow |
|---|---|---|---|---|---|---|---|
| 1787915572 | 21.11° C | 99% | 1005.8 hPa | 0 mm | - | 58 W/m² | - |
| 1787914469 | 21.11° C | 99% | 1005.7 hPa | 0 mm | - | 45 W/m² | - |
| 1787913366 | 20.56° C | 99% | 1005.7 hPa | 0 mm | - | 46 W/m² | - |
| 1787912263 | 20° C | 99% | 1005.9 hPa | 0 mm | - | 19 W/m² | - |
| 1787911160 | 20.56° C | 99% | 1005.9 hPa | 0 mm | - | 27 W/m² | - |
| 1787910057 | 20.56° C | 99% | 1006.1 hPa | 0 mm | - | 42 W/m² | - |
| 1787908954 | 20° C | 99% | 1005.7 hPa | 0 mm | - | 39 W/m² | - |
| 1787907851 | 20° C | 99% | 1005.7 hPa | 0 mm | - | 27 W/m² | - |
| 1787906748 | 19.44° C | 99% | 1005.7 hPa | 0 mm | - | 15 W/m² | - |
| 1787905652 | 19.44° C | 99% | 1005.5 hPa | 0 mm | - | 27 W/m² | - |
| 1787904542 | 19.44° C | 99% | 1005.3 hPa | 0 mm | - | 32 W/m² | - |
| 1787903439 | 19.44° C | 99% | 1005.5 hPa | 0 mm | - | 23 W/m² | - |
| 1787902336 | 18.89° C | 99% | 1005.6 hPa | 0 mm | - | 11 W/m² | - |
| 1787901233 | 18.89° C | 99% | 1005.5 hPa | 0 mm | - | 15 W/m² | - |
| 1787900130 | 18.89° C | 99% | 1005.7 hPa | 0 mm | - | 13 W/m² | - |
| 1787899027 | 18.89° C | 99% | 1006 hPa | 0 mm | - | 12 W/m² | - |
| 1787897924 | 18.33° C | 99% | 1006 hPa | 0 mm | - | 7 W/m² | - |
| 1787896821 | 18.33° C | 99% | 1005.6 hPa | 0 mm | - | 7 W/m² | - |
| 1787895718 | 17.78° C | 99% | 1005.5 hPa | 0 mm | - | 6 W/m² | - |
| 1787893512 | 17.78° C | 99% | 1005.3 hPa | 0 mm | - | 2 W/m² | - |
| 1787892409 | 17.78° C | 99% | 1005.2 hPa | 0 mm | - | 0 W/m² | - |
| 1787891306 | 17.78° C | 99% | 1005.1 hPa | 0 mm | - | 0 W/m² | - |
| 1787890209 | 17.78° C | 99% | 1005.4 hPa | 0 mm | - | 0 W/m² | - |
| 1787889100 | 17.78° C | 99% | 1005 hPa | 0 mm | - | 0 W/m² | - |
| 1787887997 | 18.33° C | 99% | 1005.2 hPa | 0 mm | - | 0 W/m² | - |
* Rain latest hour (hover to see other rain measurements)
** Current wind speed in m/s (hover to see current wind gust speed)